RYR23L EDDH-EDDP

Flight info

Callsign RYR23L
Flight time 0h 39m
Altitude 23000
Route AMLUH2G/33 AMLUH M852 DENIX Z113 SAS Z88 UPDAT T236 ADMOS T959 KOJEC KOJEC1R
Aircraft B38M/M-SDE1FGHILORVWXY/HB1

Departure

Time 2026-05-07 18:54
Airport Hamburg Helmut Schmidt Airport (EDDH)

Arrival

Time 2026-05-07 19:34
Airport Leipzig/Halle Airport (EDDP)
Time Latitude Longitude Altitude Speed Heading
2026-05-07 17:52 53.63302 10.00022 47 ft 0 kts 143°
2026-05-07 18:00 53.63303 10.00022 53 ft 0 kts 143°
2026-05-07 18:01 53.63303 10.00021 53 ft 0 kts 143°
2026-05-07 18:44 53.63322 9.99999 48 ft 4 kts 149°
2026-05-07 18:44 53.63345 9.99979 50 ft 4 kts 160°
2026-05-07 18:44 53.63371 9.99971 50 ft 4 kts 186°
2026-05-07 18:45 53.63389 9.99984 49 ft 1 kts 230°
2026-05-07 18:50 53.63385 9.99976 50 ft 3 kts 230°
2026-05-07 18:50 53.63359 9.99924 53 ft 10 kts 230°
2026-05-07 18:50 53.63321 9.99847 53 ft 2 kts 230°
2026-05-07 18:51 53.63290 9.99789 53 ft 11 kts 225°
2026-05-07 18:51 53.63199 9.99782 49 ft 18 kts 152°
2026-05-07 18:51 53.63065 9.99899 50 ft 26 kts 152°
2026-05-07 18:51 53.62949 9.99997 50 ft 5 kts 154°
2026-05-07 18:52 53.62910 10.00029 53 ft 0 kts 154°
2026-05-07 18:52 53.62893 10.00036 53 ft 6 kts 174°
2026-05-07 18:52 53.62849 9.99968 53 ft 12 kts 245°
2026-05-07 18:52 53.62827 9.99788 46 ft 21 kts 308°
2026-05-07 18:53 53.62884 9.99725 52 ft 0 kts 333°
2026-05-07 18:53 53.62910 9.99704 48 ft 26 kts 334°
2026-05-07 18:53 53.63346 9.99355 52 ft 110 kts 331°
2026-05-07 18:54 53.64239 9.98584 84 ft 174 kts 336°
2026-05-07 18:54 53.65414 9.97540 553 ft 203 kts 339°
2026-05-07 18:54 53.66660 9.96495 1852 ft 194 kts 336°
2026-05-07 18:54 53.67879 9.95430 2706 ft 204 kts 335°
2026-05-07 18:55 53.69246 9.94764 3493 ft 211 kts
2026-05-07 18:55 53.70794 9.94729 3872 ft 234 kts
2026-05-07 18:55 53.72447 9.95069 3887 ft 244 kts 24°
2026-05-07 18:55 53.73789 9.96735 4170 ft 241 kts 55°
2026-05-07 18:56 53.74456 9.99311 4692 ft 243 kts 77°
2026-05-07 18:56 53.74819 10.02122 5237 ft 247 kts 88°
2026-05-07 18:56 53.74395 10.04891 5640 ft 249 kts 123°
2026-05-07 18:56 53.73343 10.07254 6190 ft 254 kts 123°
2026-05-07 18:57 53.72365 10.09760 6740 ft 259 kts 121°
2026-05-07 18:57 53.71409 10.12356 7308 ft 261 kts 120°
2026-05-07 18:57 53.70471 10.15009 7850 ft 269 kts 119°
2026-05-07 18:57 53.69497 10.17809 8414 ft 287 kts 121°
2026-05-07 18:58 53.68095 10.20342 8963 ft 306 kts 147°
2026-05-07 18:58 53.66083 10.21717 9552 ft 322 kts 166°
2026-05-07 18:58 53.63861 10.22690 10152 ft 337 kts 165°
2026-05-07 18:58 53.61550 10.23735 10688 ft 351 kts 165°
2026-05-07 18:59 53.59163 10.24823 11228 ft 362 kts 165°
2026-05-07 18:59 53.56698 10.25950 11794 ft 369 kts 165°
2026-05-07 18:59 53.54211 10.27088 12371 ft 372 kts 165°
2026-05-07 18:59 53.51708 10.28232 13129 ft 374 kts 165°
2026-05-07 19:00 53.49195 10.29379 13949 ft 376 kts 165°
2026-05-07 19:00 53.46679 10.30527 14666 ft 378 kts 166°
2026-05-07 19:00 53.44143 10.31684 15395 ft 379 kts 165°
2026-05-07 19:00 53.41590 10.32837 16154 ft 380 kts 165°
2026-05-07 19:01 53.39039 10.33986 16933 ft 379 kts 165°
2026-05-07 19:01 53.36492 10.35133 17733 ft 379 kts 166°
2026-05-07 19:01 53.33955 10.36273 18522 ft 377 kts 166°
2026-05-07 19:01 53.31431 10.37406 19254 ft 375 kts 166°
2026-05-07 19:02 53.28929 10.38528 19990 ft 372 kts 166°
2026-05-07 19:02 53.26441 10.39642 20734 ft 368 kts 166°
2026-05-07 19:02 53.23969 10.40748 21506 ft 364 kts 166°
2026-05-07 19:02 53.21548 10.41830 22285 ft 359 kts 166°
2026-05-07 19:03 53.19153 10.42899 23004 ft 358 kts 166°
2026-05-07 19:03 53.16712 10.43988 23152 ft 369 kts 166°
2026-05-07 19:03 53.14177 10.45105 23100 ft 384 kts 168°
2026-05-07 19:03 53.11494 10.45494 23092 ft 392 kts 185°
2026-05-07 19:04 53.08731 10.45234 23110 ft 404 kts 184°
2026-05-07 19:04 53.05868 10.44979 23096 ft 416 kts 185°
2026-05-07 19:04 53.02945 10.44701 23096 ft 426 kts 185°
2026-05-07 19:04 52.99963 10.44409 23099 ft 432 kts 185°
2026-05-07 19:05 52.96977 10.44115 23108 ft 433 kts 185°
2026-05-07 19:05 52.94004 10.43822 23111 ft 433 kts 185°
2026-05-07 19:05 52.90949 10.43521 23115 ft 434 kts 185°
2026-05-07 19:05 52.87951 10.43225 23117 ft 434 kts 185°
2026-05-07 19:06 52.84931 10.42928 23121 ft 434 kts 185°
2026-05-07 19:06 52.78908 10.42337 23112 ft 433 kts 185°
2026-05-07 19:06 52.75897 10.42042 23116 ft 433 kts 185°
2026-05-07 19:07 52.72889 10.41656 23106 ft 432 kts 191°
2026-05-07 19:07 52.70191 10.40297 23104 ft 429 kts 206°
2026-05-07 19:07 52.67874 10.38037 23128 ft 428 kts 214°
2026-05-07 19:07 52.65401 10.35287 23117 ft 429 kts 215°
2026-05-07 19:08 52.62955 10.32489 23121 ft 429 kts 216°
2026-05-07 19:08 52.60517 10.29664 23105 ft 429 kts 216°
2026-05-07 19:08 52.58088 10.26826 23107 ft 429 kts 216°
2026-05-07 19:08 52.55658 10.23980 23100 ft 429 kts 216°
2026-05-07 19:09 52.53227 10.21133 23104 ft 429 kts 216°
2026-05-07 19:09 52.50810 10.18304 23101 ft 429 kts 216°
2026-05-07 19:09 52.48373 10.15455 23103 ft 429 kts 216°
2026-05-07 19:09 52.45951 10.12628 23105 ft 429 kts 216°
2026-05-07 19:10 52.43528 10.09803 23108 ft 429 kts 216°
2026-05-07 19:10 52.41092 10.06968 23105 ft 429 kts 216°
2026-05-07 19:10 52.38660 10.04140 23105 ft 429 kts 216°
2026-05-07 19:10 52.36227 10.01315 23107 ft 429 kts 216°
2026-05-07 19:11 52.33765 9.98461 23098 ft 429 kts 216°
2026-05-07 19:11 52.31322 9.95645 23104 ft 429 kts 214°
2026-05-07 19:11 52.28660 9.93494 23096 ft 431 kts 199°
2026-05-07 19:11 52.25706 9.92609 23114 ft 433 kts 183°
2026-05-07 19:12 52.22708 9.93010 23111 ft 436 kts 168°
2026-05-07 19:12 52.19866 9.94623 23109 ft 438 kts 154°
2026-05-07 19:12 52.17403 9.96855 23122 ft 439 kts 151°
2026-05-07 19:12 52.14774 9.99404 23106 ft 440 kts 149°
2026-05-07 19:13 52.12181 10.02016 23110 ft 440 kts 149°
2026-05-07 19:13 52.09585 10.04673 23107 ft 440 kts 149°
2026-05-07 19:13 52.07002 10.07343 23116 ft 440 kts 148°
2026-05-07 19:13 52.04432 10.10009 23106 ft 440 kts 148°
2026-05-07 19:14 52.01851 10.12689 22858 ft 439 kts 148°
2026-05-07 19:14 51.99297 10.15339 22588 ft 437 kts 148°
2026-05-07 19:14 51.96737 10.17991 22314 ft 435 kts 148°
2026-05-07 19:14 51.94273 10.20814 22024 ft 434 kts 138°
2026-05-07 19:15 51.92339 10.24550 21761 ft 433 kts 123°
2026-05-07 19:15 51.90805 10.28742 21502 ft 433 kts 121°
2026-05-07 19:15 51.89325 10.32984 21228 ft 432 kts 119°
2026-05-07 19:15 51.87879 10.37244 21105 ft 431 kts 119°
2026-05-07 19:16 51.86451 10.41503 21104 ft 431 kts 119°
2026-05-07 19:16 51.85028 10.45779 21105 ft 432 kts 118°
2026-05-07 19:16 51.83610 10.50051 21109 ft 432 kts 118°
2026-05-07 19:16 51.82180 10.54358 21101 ft 432 kts 118°
2026-05-07 19:17 51.80766 10.58609 21108 ft 432 kts 118°
2026-05-07 19:17 51.79323 10.62938 21100 ft 432 kts 118°
2026-05-07 19:17 51.77921 10.67140 21103 ft 432 kts 118°
2026-05-07 19:17 51.76492 10.71420 21106 ft 432 kts 118°
2026-05-07 19:18 51.75072 10.75676 21107 ft 432 kts 118°
2026-05-07 19:18 51.73637 10.79965 21106 ft 432 kts 118°
2026-05-07 19:18 51.72294 10.84265 21096 ft 432 kts 112°
2026-05-07 19:18 51.71181 10.88762 21114 ft 433 kts 112°
2026-05-07 19:19 51.70073 10.93280 21107 ft 433 kts 111°
2026-05-07 19:19 51.68973 10.97788 20586 ft 432 kts 111°
2026-05-07 19:19 51.67882 11.02264 19826 ft 425 kts 111°
2026-05-07 19:19 51.66811 11.06655 19079 ft 416 kts 111°
2026-05-07 19:20 51.65764 11.10935 18338 ft 408 kts 111°
2026-05-07 19:20 51.64734 11.15141 17506 ft 402 kts 112°
2026-05-07 19:20 51.64045 11.17950 16979 ft 396 kts 111°
2026-05-07 19:20 51.63053 11.21991 16219 ft 390 kts 111°
2026-05-07 19:21 51.62008 11.25982 15438 ft 384 kts 118°
2026-05-07 19:21 51.60682 11.29667 14704 ft 377 kts 113°
2026-05-07 19:21 51.59850 11.33619 13992 ft 370 kts 104°
2026-05-07 19:21 51.59171 11.37577 13205 ft 366 kts 104°
2026-05-07 19:22 51.58500 11.41502 12420 ft 361 kts 104°
2026-05-07 19:22 51.57839 11.45369 11659 ft 357 kts 104°
2026-05-07 19:22 51.57187 11.49190 10911 ft 353 kts 104°
2026-05-07 19:22 51.56545 11.52963 10316 ft 345 kts 104°
2026-05-07 19:23 51.55927 11.56568 10238 ft 325 kts 104°
2026-05-07 19:23 51.55326 11.60049 10014 ft 322 kts 104°
2026-05-07 19:23 51.54733 11.63487 9518 ft 320 kts 104°
2026-05-07 19:23 51.54130 11.66896 8984 ft 314 kts 104°
2026-05-07 19:24 51.53539 11.70237 8470 ft 309 kts 104°
2026-05-07 19:24 51.52957 11.73534 7964 ft 305 kts 104°
2026-05-07 19:24 51.52384 11.76798 7464 ft 301 kts 104°
2026-05-07 19:24 51.51832 11.79957 6913 ft 300 kts 104°
2026-05-07 19:25 51.51169 11.83161 6279 ft 299 kts 117°
2026-05-07 19:25 51.49875 11.85707 5636 ft 299 kts 141°
2026-05-07 19:25 51.48042 11.87088 5355 ft 293 kts 167°
2026-05-07 19:25 51.46007 11.87082 5181 ft 297 kts 192°
2026-05-07 19:26 51.44152 11.85697 5021 ft 296 kts 219°
2026-05-07 19:26 51.42788 11.83333 5004 ft 280 kts 233°
2026-05-07 19:26 51.41689 11.80935 5029 ft 258 kts 234°
2026-05-07 19:26 51.40558 11.78832 4999 ft 243 kts 216°
2026-05-07 19:27 51.39031 11.77862 4937 ft 237 kts 185°
2026-05-07 19:27 51.37432 11.78270 4659 ft 235 kts 154°
2026-05-07 19:27 51.36199 11.79895 4164 ft 234 kts 123°
2026-05-07 19:27 51.35658 11.82324 3614 ft 235 kts 92°
2026-05-07 19:28 51.35962 11.84864 3191 ft 231 kts 66°
2026-05-07 19:28 51.36696 11.87065 3126 ft 222 kts 62°
2026-05-07 19:28 51.37367 11.89285 3020 ft 221 kts 64°
2026-05-07 19:28 51.38010 11.91506 2984 ft 213 kts 64°
2026-05-07 19:29 51.38594 11.93513 2813 ft 189 kts 64°
2026-05-07 19:29 51.39129 11.95356 2484 ft 175 kts 63°
2026-05-07 19:29 51.39644 11.97079 2137 ft 168 kts 66°
2026-05-07 19:29 51.40031 11.98812 1912 ft 160 kts 71°
2026-05-07 19:30 51.40239 12.00442 1811 ft 144 kts 84°
2026-05-07 19:30 51.40265 12.01957 1599 ft 141 kts 86°
2026-05-07 19:30 51.40282 12.03494 1659 ft 138 kts 87°
2026-05-07 19:30 51.40296 12.05054 1308 ft 146 kts 86°
2026-05-07 19:31 51.40380 12.06788 706 ft 139 kts 81°
2026-05-07 19:31 51.40650 12.08037 1060 ft 131 kts 66°
2026-05-07 19:31 51.40921 12.09486 1163 ft 140 kts 87°
2026-05-07 19:31 51.40883 12.10954 1230 ft 142 kts 91°
2026-05-07 19:32 51.40780 12.12440 1443 ft 124 kts 98°
2026-05-07 19:32 51.40683 12.13907 1147 ft 143 kts 84°
2026-05-07 19:32 51.40870 12.15433 805 ft 138 kts 77°
2026-05-07 19:32 51.40993 12.16958 728 ft 143 kts 82°
2026-05-07 19:33 51.41073 12.18667 659 ft 159 kts 85°
2026-05-07 19:33 51.41161 12.20367 499 ft 145 kts 85°
2026-05-07 19:33 51.41218 12.21859 458 ft 122 kts 85°
2026-05-07 19:33 51.41282 12.23038 465 ft 90 kts 85°
2026-05-07 19:34 51.41320 12.23866 467 ft 66 kts 86°
2026-05-07 19:34 51.41365 12.24465 470 ft 22 kts 50°
2026-05-07 19:34 51.41495 12.24534 477 ft 19 kts 12°
2026-05-07 19:34 51.41577 12.24564 476 ft 7 kts 12°
2026-05-07 19:35 51.41582 12.24566 476 ft 0 kts 12°
2026-05-07 19:36 51.41584 12.24566 476 ft 1 kts 12°
2026-05-07 19:36 51.41598 12.24571 476 ft 3 kts
2026-05-07 19:36 51.41629 12.24564 476 ft 6 kts 340°
2026-05-07 19:37 51.41653 12.24486 473 ft 13 kts 270°
2026-05-07 19:37 51.41645 12.24282 474 ft 23 kts 266°
2026-05-07 19:37 51.41631 12.23959 472 ft 35 kts 266°
2026-05-07 19:37 51.41609 12.23527 466 ft 39 kts 265°
2026-05-07 19:38 51.41625 12.23086 467 ft 40 kts 286°
2026-05-07 19:38 51.41700 12.22651 464 ft 41 kts 285°
2026-05-07 19:38 51.41767 12.22256 454 ft 29 kts 285°
2026-05-07 19:38 51.41810 12.22001 448 ft 21 kts 285°
2026-05-07 19:39 51.41837 12.21860 443 ft 7 kts 309°
2026-05-07 19:39 51.41872 12.21856 439 ft 6 kts 12°
2026-05-07 19:39 51.41908 12.21870 439 ft 5 kts 15°
2026-05-07 19:39 51.41920 12.21875 439 ft 1 kts 15°
2026-05-07 19:40 51.41926 12.21878 443 ft 1 kts 15°
2026-05-07 19:40 51.41927 12.21878 443 ft 0 kts 15°